Year,Month,Day,Hour,Minute,Value (Times are PST for temperature in C)
2015,08,14,00,00,18.20
2015,08,14,00,01,18.20
2015,08,14,00,02,18.20
2015,08,14,00,03,18.20
2015,08,14,00,04,18.20
2015,08,14,00,05,18.20
2015,08,14,00,06,18.20
2015,08,14,00,07,18.20
2015,08,14,00,08,18.20
2015,08,14,00,09,18.20
2015,08,14,00,10,18.10
2015,08,14,00,11,18.10
2015,08,14,00,12,18.10
2015,08,14,00,13,18.10
2015,08,14,00,14,18.10
2015,08,14,00,15,18.10
2015,08,14,00,16,18.10
2015,08,14,00,17,18.10
2015,08,14,00,18,18.10
2015,08,14,00,19,18.00
2015,08,14,00,20,18.00
2015,08,14,00,21,18.00
2015,08,14,00,22,18.00
2015,08,14,00,23,18.00
2015,08,14,00,24,18.00
2015,08,14,00,25,18.00
2015,08,14,00,26,18.00
2015,08,14,00,27,18.00
2015,08,14,00,28,17.90
2015,08,14,00,29,17.90
2015,08,14,00,30,17.90
2015,08,14,00,31,17.90
2015,08,14,00,32,17.90
2015,08,14,00,33,17.90
2015,08,14,00,34,17.90
2015,08,14,00,35,17.90
2015,08,14,00,36,17.90
2015,08,14,00,37,17.90
2015,08,14,00,38,17.90
2015,08,14,00,39,17.80
2015,08,14,00,40,17.80
2015,08,14,00,41,17.80
2015,08,14,00,42,17.80
2015,08,14,00,43,17.80
2015,08,14,00,44,17.80
2015,08,14,00,45,17.80
2015,08,14,00,46,17.80
2015,08,14,00,47,17.80
2015,08,14,00,48,17.80
2015,08,14,00,49,17.80
2015,08,14,00,50,17.80
2015,08,14,00,51,17.80
2015,08,14,00,52,17.80
2015,08,14,00,53,17.80
2015,08,14,00,54,17.80
2015,08,14,00,55,17.80
2015,08,14,00,56,17.80
2015,08,14,00,57,17.80
2015,08,14,00,58,17.80
2015,08,14,00,59,17.80
2015,08,14,01,00,17.80
2015,08,14,01,01,17.80
2015,08,14,01,02,17.70
2015,08,14,01,03,17.70
2015,08,14,01,04,17.70
2015,08,14,01,05,17.70
2015,08,14,01,06,17.70
2015,08,14,01,07,17.70
2015,08,14,01,08,17.70
2015,08,14,01,09,17.70
2015,08,14,01,10,17.70
2015,08,14,01,11,17.70
2015,08,14,01,12,17.70
2015,08,14,01,13,17.70
2015,08,14,01,14,17.70
2015,08,14,01,15,17.70
2015,08,14,01,16,17.60
2015,08,14,01,17,17.60
2015,08,14,01,18,17.60
2015,08,14,01,19,17.60
2015,08,14,01,20,17.60
2015,08,14,01,21,17.60
2015,08,14,01,22,17.60
2015,08,14,01,23,17.60
2015,08,14,01,24,17.60
2015,08,14,01,25,17.60
2015,08,14,01,26,17.60
2015,08,14,01,27,17.60
2015,08,14,01,28,17.50
2015,08,14,01,29,17.50
2015,08,14,01,30,17.50
2015,08,14,01,31,17.50
2015,08,14,01,32,17.40
2015,08,14,01,33,17.40
2015,08,14,01,34,17.40
2015,08,14,01,35,17.40
2015,08,14,01,36,17.40
2015,08,14,01,37,17.40
2015,08,14,01,38,17.40
2015,08,14,01,39,17.40
2015,08,14,01,40,17.40
2015,08,14,01,41,17.40
2015,08,14,01,42,17.40
2015,08,14,01,43,17.40
2015,08,14,01,44,17.30
2015,08,14,01,45,17.30
2015,08,14,01,46,17.30
2015,08,14,01,47,17.30
2015,08,14,01,48,17.30
2015,08,14,01,49,17.30
2015,08,14,01,50,17.30
2015,08,14,01,51,17.30
2015,08,14,01,52,17.30
2015,08,14,01,53,17.30
2015,08,14,01,54,17.30
2015,08,14,01,55,17.30
2015,08,14,01,56,17.20
2015,08,14,01,57,17.20
2015,08,14,01,58,17.20
2015,08,14,01,59,17.20
2015,08,14,02,00,17.20
2015,08,14,02,01,17.20
2015,08,14,02,02,17.20
2015,08,14,02,03,17.20
2015,08,14,02,04,17.20
2015,08,14,02,05,17.10
2015,08,14,02,06,17.10
2015,08,14,02,07,17.10
2015,08,14,02,08,17.10
2015,08,14,02,09,17.10
2015,08,14,02,10,17.10
2015,08,14,02,11,17.10
2015,08,14,02,12,17.10
2015,08,14,02,13,17.10
2015,08,14,02,14,17.10
2015,08,14,02,15,17.10
2015,08,14,02,16,17.00
2015,08,14,02,17,17.00
2015,08,14,02,18,17.00
2015,08,14,02,19,17.00
2015,08,14,02,20,17.00
2015,08,14,02,21,17.00
2015,08,14,02,22,17.00
2015,08,14,02,23,17.00
2015,08,14,02,24,16.90
2015,08,14,02,25,16.90
2015,08,14,02,26,16.90
2015,08,14,02,27,16.90
2015,08,14,02,28,16.90
2015,08,14,02,29,16.90
2015,08,14,02,30,16.90
2015,08,14,02,31,16.90
2015,08,14,02,32,16.90
2015,08,14,02,33,16.90
2015,08,14,02,34,16.90
2015,08,14,02,35,16.90
2015,08,14,02,36,16.90
2015,08,14,02,37,16.90
2015,08,14,02,38,16.80
2015,08,14,02,39,16.80
2015,08,14,02,40,16.80
2015,08,14,02,41,16.80
2015,08,14,02,42,16.80
2015,08,14,02,43,16.80
2015,08,14,02,44,16.80
2015,08,14,02,45,16.80
2015,08,14,02,46,16.80
2015,08,14,02,47,16.80
2015,08,14,02,48,16.80
2015,08,14,02,49,16.80
2015,08,14,02,50,16.80
2015,08,14,02,51,16.80
2015,08,14,02,52,16.80
2015,08,14,02,53,16.80
2015,08,14,02,54,16.80
2015,08,14,02,55,16.80
2015,08,14,02,56,16.70
2015,08,14,02,57,16.70
2015,08,14,02,58,16.70
2015,08,14,02,59,16.70
2015,08,14,03,00,16.70
2015,08,14,03,01,16.70
2015,08,14,03,02,16.70
2015,08,14,03,03,16.70
2015,08,14,03,04,16.70
2015,08,14,03,05,16.70
2015,08,14,03,06,16.70
2015,08,14,03,07,16.70
2015,08,14,03,08,16.70
2015,08,14,03,09,16.70
2015,08,14,03,10,16.70
2015,08,14,03,11,16.70
2015,08,14,03,12,16.70
2015,08,14,03,13,16.60
2015,08,14,03,14,16.60
2015,08,14,03,15,16.60
2015,08,14,03,16,16.60
2015,08,14,03,17,16.60
2015,08,14,03,18,16.60
2015,08,14,03,19,16.60
2015,08,14,03,20,16.60
2015,08,14,03,21,16.60
2015,08,14,03,22,16.60
2015,08,14,03,23,16.60
2015,08,14,03,24,16.60
2015,08,14,03,25,16.60
2015,08,14,03,26,16.60
2015,08,14,03,27,16.60
2015,08,14,03,28,16.60
2015,08,14,03,29,16.60
2015,08,14,03,30,16.60
2015,08,14,03,31,16.60
2015,08,14,03,32,16.60
2015,08,14,03,33,16.60
2015,08,14,03,34,16.60
2015,08,14,03,35,16.50
2015,08,14,03,36,16.50
2015,08,14,03,37,16.50
2015,08,14,03,38,16.50
2015,08,14,03,39,16.50
2015,08,14,03,40,16.50
2015,08,14,03,41,16.50
2015,08,14,03,42,16.40
2015,08,14,03,43,16.50
2015,08,14,03,44,16.40
2015,08,14,03,45,16.40
2015,08,14,03,46,16.40
2015,08,14,03,47,16.40
2015,08,14,03,48,16.40
2015,08,14,03,49,16.40
2015,08,14,03,50,16.40
2015,08,14,03,51,16.40
2015,08,14,03,52,16.40
2015,08,14,03,53,16.40
2015,08,14,03,54,16.40
2015,08,14,03,55,16.40
2015,08,14,03,56,16.30
2015,08,14,03,57,16.30
2015,08,14,03,58,16.30
2015,08,14,03,59,16.30
2015,08,14,04,00,16.30
2015,08,14,04,01,16.30
2015,08,14,04,02,16.30
2015,08,14,04,03,16.30
2015,08,14,04,04,16.30
2015,08,14,04,05,16.30
2015,08,14,04,06,16.30
2015,08,14,04,07,16.20
2015,08,14,04,08,16.20
2015,08,14,04,09,16.20
2015,08,14,04,10,16.20
2015,08,14,04,11,16.20
2015,08,14,04,12,16.20
2015,08,14,04,13,16.20
2015,08,14,04,14,16.20
2015,08,14,04,15,16.20
2015,08,14,04,16,16.20
2015,08,14,04,17,16.20
2015,08,14,04,18,16.20
2015,08,14,04,19,16.20
2015,08,14,04,20,16.20
2015,08,14,04,21,16.20
2015,08,14,04,22,16.20
2015,08,14,04,23,16.20
2015,08,14,04,24,16.20
2015,08,14,04,25,16.20
2015,08,14,04,26,16.10
2015,08,14,04,27,16.10
2015,08,14,04,28,16.10
2015,08,14,04,29,16.10
2015,08,14,04,30,16.10
2015,08,14,04,31,16.10
2015,08,14,04,32,16.10
2015,08,14,04,33,16.00
2015,08,14,04,34,16.00
2015,08,14,04,35,16.00
2015,08,14,04,36,16.00
2015,08,14,04,37,16.00
2015,08,14,04,38,16.00
2015,08,14,04,39,15.90
2015,08,14,04,40,15.90
2015,08,14,04,41,15.90
2015,08,14,04,42,15.90
2015,08,14,04,43,15.90
2015,08,14,04,44,15.90
2015,08,14,04,45,15.90
2015,08,14,04,46,15.90
2015,08,14,04,47,15.90
2015,08,14,04,48,15.90
2015,08,14,04,49,15.90
2015,08,14,04,50,15.90
2015,08,14,04,51,15.90
2015,08,14,04,52,15.80
2015,08,14,04,53,15.80
2015,08,14,04,54,15.80
2015,08,14,04,55,15.80
2015,08,14,04,56,15.80
2015,08,14,04,57,15.80
2015,08,14,04,58,15.80
2015,08,14,04,59,15.80
2015,08,14,05,00,15.80
2015,08,14,05,01,15.80
2015,08,14,05,02,15.80
2015,08,14,05,03,15.80
2015,08,14,05,04,15.80
2015,08,14,05,05,15.80
2015,08,14,05,06,15.80
2015,08,14,05,07,15.70
2015,08,14,05,08,15.70
2015,08,14,05,09,15.70
2015,08,14,05,10,15.70
2015,08,14,05,11,15.70
2015,08,14,05,12,15.70
2015,08,14,05,13,15.70
2015,08,14,05,14,15.70
2015,08,14,05,15,15.70
2015,08,14,05,16,15.70
2015,08,14,05,17,15.70
2015,08,14,05,18,15.70
2015,08,14,05,19,15.70
2015,08,14,05,20,15.70
2015,08,14,05,21,15.70
2015,08,14,05,22,15.70
2015,08,14,05,23,15.70
2015,08,14,05,24,15.70
2015,08,14,05,25,15.70
2015,08,14,05,26,15.70
2015,08,14,05,27,15.70
2015,08,14,05,28,15.70
2015,08,14,05,29,15.70
2015,08,14,05,30,15.70
2015,08,14,05,31,15.70
2015,08,14,05,32,15.70
2015,08,14,05,33,15.70
2015,08,14,05,34,15.70
2015,08,14,05,35,15.70
2015,08,14,05,36,15.70
2015,08,14,05,37,15.70
2015,08,14,05,38,15.70
2015,08,14,05,39,15.70
2015,08,14,05,40,15.70
2015,08,14,05,41,15.70
2015,08,14,05,42,15.70
2015,08,14,05,43,15.70
2015,08,14,05,44,15.70
2015,08,14,05,45,15.70
2015,08,14,05,46,15.70
2015,08,14,05,47,15.70
2015,08,14,05,48,15.70
2015,08,14,05,49,15.70
2015,08,14,05,50,15.70
2015,08,14,05,51,15.70
2015,08,14,05,52,15.70
2015,08,14,05,53,15.70
2015,08,14,05,54,15.70
2015,08,14,05,55,15.70
2015,08,14,05,56,15.70
2015,08,14,05,57,15.70
2015,08,14,05,58,15.70
2015,08,14,05,59,15.70
2015,08,14,06,00,15.70
2015,08,14,06,01,15.70
2015,08,14,06,02,15.70
2015,08,14,06,03,15.70
2015,08,14,06,04,15.70
2015,08,14,06,05,15.70
2015,08,14,06,06,15.70
2015,08,14,06,07,15.70
2015,08,14,06,08,15.70
2015,08,14,06,09,15.70
2015,08,14,06,10,15.70
2015,08,14,06,11,15.70
2015,08,14,06,12,15.70
2015,08,14,06,13,15.70
2015,08,14,06,14,15.70
2015,08,14,06,15,15.70
2015,08,14,06,16,15.70
2015,08,14,06,17,15.70
2015,08,14,06,18,15.70
2015,08,14,06,19,15.70
2015,08,14,06,20,15.70
2015,08,14,06,21,15.70
2015,08,14,06,22,15.70
2015,08,14,06,23,15.70
2015,08,14,06,24,15.70
2015,08,14,06,25,15.70
2015,08,14,06,26,15.70
2015,08,14,06,27,15.70
2015,08,14,06,28,15.70
2015,08,14,06,29,15.70
2015,08,14,06,30,15.70
2015,08,14,06,31,15.70
2015,08,14,06,32,15.70
2015,08,14,06,33,15.70
2015,08,14,06,34,15.70
2015,08,14,06,35,15.70
2015,08,14,06,36,15.70
2015,08,14,06,37,15.80
2015,08,14,06,38,15.80
2015,08,14,06,39,15.80
2015,08,14,06,40,15.80
2015,08,14,06,41,15.80
2015,08,14,06,42,15.80
2015,08,14,06,43,15.80
2015,08,14,06,44,15.80
2015,08,14,06,45,15.80
2015,08,14,06,46,15.70
2015,08,14,06,47,15.70
2015,08,14,06,48,15.70
2015,08,14,06,49,15.70
2015,08,14,06,50,15.70
2015,08,14,06,51,15.70
2015,08,14,06,52,15.70
2015,08,14,06,53,15.70
2015,08,14,06,54,15.70
2015,08,14,06,55,15.70
2015,08,14,06,56,15.70
2015,08,14,06,57,15.70
2015,08,14,06,58,15.70
2015,08,14,06,59,15.70
2015,08,14,07,00,15.70
2015,08,14,07,01,15.70
2015,08,14,07,02,15.70
2015,08,14,07,03,15.60
2015,08,14,07,04,15.60
2015,08,14,07,05,15.60
2015,08,14,07,06,15.60
2015,08,14,07,07,15.60
2015,08,14,07,08,15.60
2015,08,14,14,17,25.00
2015,08,14,14,18,24.90
2015,08,14,14,19,24.90
2015,08,14,14,20,24.90
2015,08,14,14,21,24.90
2015,08,14,14,22,24.90
2015,08,14,14,23,24.90
2015,08,14,14,24,24.90
2015,08,14,14,25,25.00
2015,08,14,14,26,25.10
2015,08,14,14,27,25.10
2015,08,14,14,28,25.20
2015,08,14,14,29,25.30
2015,08,14,14,30,25.40
2015,08,14,14,31,25.50
2015,08,14,14,32,25.60
2015,08,14,14,33,25.60
2015,08,14,14,34,25.50
2015,08,14,14,35,25.50
2015,08,14,14,36,25.40
2015,08,14,14,37,25.40
2015,08,14,14,38,25.30
2015,08,14,14,39,25.30
2015,08,14,14,40,25.20
2015,08,14,14,41,25.10
2015,08,14,14,42,25.10
2015,08,14,14,43,25.00
2015,08,14,14,44,24.90
2015,08,14,14,45,24.90
2015,08,14,14,46,24.80
2015,08,14,14,47,24.70
2015,08,14,14,48,24.60
2015,08,14,14,49,24.60
2015,08,14,14,50,24.50
2015,08,14,14,51,24.40
2015,08,14,14,52,24.40
2015,08,14,14,53,24.30
2015,08,14,14,54,24.20
2015,08,14,14,55,24.10
2015,08,14,14,56,24.00
2015,08,14,14,57,23.90
2015,08,14,14,58,23.80
2015,08,14,14,59,23.70
2015,08,14,15,00,23.70
2015,08,14,15,01,23.50
2015,08,14,15,02,23.40
2015,08,14,15,03,23.40
2015,08,14,15,04,23.30
2015,08,14,15,05,23.30
2015,08,14,15,06,23.30
2015,08,14,15,07,23.30
2015,08,14,15,08,23.30
2015,08,14,15,09,23.30
2015,08,14,15,10,23.30
2015,08,14,15,11,23.30
2015,08,14,15,12,23.30
2015,08,14,15,13,23.30
2015,08,14,15,14,23.30
2015,08,14,15,15,23.30
2015,08,14,15,16,23.40
2015,08,14,15,17,23.40
2015,08,14,15,18,23.50
2015,08,14,15,19,23.60
2015,08,14,15,20,23.60
2015,08,14,15,21,23.60
2015,08,14,15,22,23.60
2015,08,14,15,23,23.60
2015,08,14,15,24,23.40
2015,08,14,15,25,23.30
2015,08,14,15,26,23.20
2015,08,14,15,27,23.00
2015,08,14,15,28,23.00
2015,08,14,15,29,23.00
2015,08,14,15,30,23.10
2015,08,14,15,31,23.10
2015,08,14,15,32,23.10
2015,08,14,15,33,23.10
2015,08,14,15,34,23.10
2015,08,14,15,35,23.10
2015,08,14,15,36,23.00
2015,08,14,15,37,23.10
2015,08,14,15,38,23.10
2015,08,14,15,39,23.20
2015,08,14,15,40,23.30
2015,08,14,15,41,23.20
2015,08,14,15,42,23.10
2015,08,14,15,43,23.10
2015,08,14,15,44,23.00
2015,08,14,15,45,23.00
2015,08,14,15,46,22.90
2015,08,14,15,47,22.90
2015,08,14,15,48,22.80
2015,08,14,15,49,22.80
2015,08,14,15,50,22.80
2015,08,14,15,51,22.80
2015,08,14,15,52,22.70
2015,08,14,15,53,22.70
2015,08,14,15,54,22.60
2015,08,14,15,55,22.70
2015,08,14,15,56,22.70
2015,08,14,15,57,22.80
2015,08,14,15,58,22.80
2015,08,14,15,59,22.80
2015,08,14,16,00,22.70
2015,08,14,16,01,22.70
2015,08,14,16,02,22.70
2015,08,14,16,03,22.70
2015,08,14,16,04,22.60
2015,08,14,16,05,22.50
2015,08,14,16,06,22.40
2015,08,14,16,07,22.30
2015,08,14,16,08,22.20
2015,08,14,16,09,22.10
2015,08,14,16,10,22.10
2015,08,14,16,11,22.10
2015,08,14,16,12,22.10
2015,08,14,16,13,22.10
2015,08,14,16,14,22.10
2015,08,14,16,15,22.20
2015,08,14,16,16,22.10
2015,08,14,16,17,22.10
2015,08,14,16,18,22.10
2015,08,14,16,19,22.10
2015,08,14,16,20,22.10
2015,08,14,16,21,22.10
2015,08,14,16,22,22.10
2015,08,14,16,23,22.10
2015,08,14,16,24,22.10
2015,08,14,16,25,22.10
2015,08,14,16,26,22.10
2015,08,14,16,27,22.10
2015,08,14,16,28,22.10
2015,08,14,16,29,22.00
2015,08,14,16,30,22.00
2015,08,14,16,31,21.80
2015,08,14,16,32,21.70
2015,08,14,16,33,21.60
2015,08,14,16,34,21.60
2015,08,14,16,35,21.50
2015,08,14,16,36,21.50
2015,08,14,16,37,21.60
2015,08,14,16,38,21.60
2015,08,14,16,39,21.60
2015,08,14,16,40,21.60
2015,08,14,16,41,21.60
2015,08,14,16,42,21.60
2015,08,14,16,43,21.50
2015,08,14,16,44,21.50
2015,08,14,16,45,21.50
2015,08,14,16,46,21.50
2015,08,14,16,47,21.50
2015,08,14,16,48,21.50
2015,08,14,16,49,21.50
2015,08,14,16,50,21.60
2015,08,14,16,51,21.60
2015,08,14,16,52,21.60
2015,08,14,16,53,21.60
2015,08,14,16,54,21.70
2015,08,14,16,55,21.70
2015,08,14,16,56,21.70
2015,08,14,16,57,21.60
2015,08,14,16,58,21.40
2015,08,14,16,59,21.30
2015,08,14,17,00,21.30
2015,08,14,17,01,21.20
2015,08,14,17,02,21.20
2015,08,14,17,03,21.10
2015,08,14,17,04,21.00
2015,08,14,17,05,21.00
2015,08,14,17,06,20.90
2015,08,14,17,07,20.90
2015,08,14,17,08,21.00
2015,08,14,17,09,21.00
2015,08,14,17,10,21.10
2015,08,14,17,11,21.00
2015,08,14,17,12,21.00
2015,08,14,17,13,21.00
2015,08,14,17,14,21.10
2015,08,14,17,15,21.00
2015,08,14,17,16,21.10
2015,08,14,17,17,21.10
2015,08,14,17,18,21.10
2015,08,14,17,19,21.00
2015,08,14,17,20,21.00
2015,08,14,17,21,21.00
2015,08,14,17,22,21.00
2015,08,14,17,23,20.90
2015,08,14,17,24,21.00
2015,08,14,17,25,21.00
2015,08,14,17,26,21.00
2015,08,14,17,27,20.90
2015,08,14,17,28,20.90
2015,08,14,17,29,20.90
2015,08,14,17,30,20.90
2015,08,14,17,31,21.00
2015,08,14,17,32,21.00
2015,08,14,17,33,21.00
2015,08,14,17,34,20.90
2015,08,14,17,35,20.90
2015,08,14,17,36,20.90
2015,08,14,17,37,20.90
2015,08,14,17,38,20.80
2015,08,14,17,39,20.80
2015,08,14,17,40,20.80
2015,08,14,17,41,20.70
2015,08,14,17,42,20.70
2015,08,14,17,43,20.70
2015,08,14,17,44,20.70
2015,08,14,17,45,20.60
2015,08,14,17,46,20.50
2015,08,14,17,47,20.40
2015,08,14,17,48,20.40
2015,08,14,17,49,20.30
2015,08,14,17,50,20.20
2015,08,14,17,51,20.10
2015,08,14,17,52,20.10
2015,08,14,17,53,20.00
2015,08,14,17,54,20.00
2015,08,14,17,55,19.90
2015,08,14,17,56,19.90
2015,08,14,17,57,19.90
2015,08,14,17,58,19.80
2015,08,14,17,59,19.80
2015,08,14,18,00,19.80
2015,08,14,18,01,19.80
2015,08,14,18,02,19.80
2015,08,14,18,03,19.80
2015,08,14,18,04,19.80
2015,08,14,18,05,19.90
2015,08,14,18,06,19.90
2015,08,14,18,07,19.90
2015,08,14,18,08,19.90
2015,08,14,18,09,19.90
2015,08,14,18,10,19.90
2015,08,14,18,11,19.90
2015,08,14,18,12,20.00
2015,08,14,18,13,20.00
2015,08,14,18,14,20.10
2015,08,14,18,15,20.10
2015,08,14,18,16,20.20
2015,08,14,18,17,20.20
2015,08,14,18,18,20.20
2015,08,14,18,19,20.20
2015,08,14,18,20,20.20
2015,08,14,18,21,20.10
2015,08,14,18,22,20.10
2015,08,14,18,23,20.00
2015,08,14,18,24,20.00
2015,08,14,18,25,19.90
2015,08,14,18,26,19.90
2015,08,14,18,27,19.80
2015,08,14,18,28,19.80
2015,08,14,18,29,19.80
2015,08,14,18,30,19.80
2015,08,14,18,31,19.70
2015,08,14,18,32,19.70
2015,08,14,18,33,19.70
2015,08,14,18,34,19.70
2015,08,14,18,35,19.70
2015,08,14,18,36,19.70
2015,08,14,18,37,19.60
2015,08,14,18,38,19.60
2015,08,14,18,39,19.50
2015,08,14,18,40,19.50
2015,08,14,18,41,19.40
2015,08,14,18,42,19.40
2015,08,14,18,43,19.30
2015,08,14,18,44,19.30
2015,08,14,18,45,19.20
2015,08,14,18,46,19.20
2015,08,14,18,47,19.10
2015,08,14,18,48,19.00
2015,08,14,18,49,18.90
2015,08,14,18,50,18.90
2015,08,14,18,51,18.80
2015,08,14,18,52,18.80
2015,08,14,18,53,18.70
2015,08,14,18,54,18.70
2015,08,14,18,55,18.60
2015,08,14,18,56,18.60
2015,08,14,18,57,18.60
2015,08,14,18,58,18.50
2015,08,14,18,59,18.40
2015,08,14,19,00,18.40
2015,08,14,19,01,18.40
2015,08,14,19,02,18.40
2015,08,14,19,03,18.40
2015,08,14,19,04,18.30
2015,08,14,19,05,18.30
2015,08,14,19,06,18.30
2015,08,14,19,07,18.30
2015,08,14,19,08,18.30
2015,08,14,19,09,18.30
2015,08,14,19,10,18.30
2015,08,14,19,11,18.30
2015,08,14,19,12,18.30
2015,08,14,19,13,18.30
2015,08,14,19,14,18.30
2015,08,14,19,15,18.30
2015,08,14,19,16,18.30
2015,08,14,19,17,18.30
2015,08,14,19,18,18.30
2015,08,14,19,19,18.30
2015,08,14,19,20,18.30
2015,08,14,19,21,18.40
2015,08,14,19,22,18.40
2015,08,14,19,23,18.40
2015,08,14,19,24,18.40
2015,08,14,19,25,18.40
2015,08,14,19,26,18.40
2015,08,14,19,27,18.40
2015,08,14,19,28,18.40
2015,08,14,19,29,18.40
2015,08,14,19,30,18.40
2015,08,14,19,31,18.40
2015,08,14,19,32,18.40
2015,08,14,19,33,18.40
2015,08,14,19,34,18.40
2015,08,14,19,35,18.40
2015,08,14,19,36,18.40
2015,08,14,19,37,18.40
2015,08,14,19,38,18.40
2015,08,14,19,39,18.40
2015,08,14,19,40,18.40
2015,08,14,19,41,18.40
2015,08,14,19,42,18.40
2015,08,14,19,43,18.40
2015,08,14,19,44,18.40
2015,08,14,19,45,18.30
2015,08,14,19,46,18.30
2015,08,14,19,47,18.30
2015,08,14,19,48,18.30
2015,08,14,19,49,18.30
2015,08,14,19,50,18.40
2015,08,14,19,51,18.30
2015,08,14,19,52,18.30
2015,08,14,19,53,18.40
2015,08,14,19,54,18.40
2015,08,14,19,55,18.40
2015,08,14,19,56,18.40
2015,08,14,19,57,18.40
2015,08,14,19,58,18.40
2015,08,14,19,59,18.40
2015,08,14,20,00,18.50
2015,08,14,20,01,18.50
2015,08,14,20,02,18.50
2015,08,14,20,03,18.50
2015,08,14,20,04,18.60
2015,08,14,20,05,18.60
2015,08,14,20,06,18.60
2015,08,14,20,07,18.60
2015,08,14,20,08,18.60
2015,08,14,20,09,18.60
2015,08,14,20,10,18.60
2015,08,14,20,11,18.60
2015,08,14,20,12,18.60
2015,08,14,20,13,18.60
2015,08,14,20,14,18.60
2015,08,14,20,15,18.60
2015,08,14,20,16,18.60
2015,08,14,20,17,18.60
2015,08,14,20,18,18.60
2015,08,14,20,19,18.60
2015,08,14,20,20,18.60
2015,08,14,20,21,18.50
2015,08,14,20,22,18.50
2015,08,14,20,23,18.50
2015,08,14,20,24,18.50
2015,08,14,20,25,18.50
2015,08,14,20,26,18.40
2015,08,14,20,27,18.40
2015,08,14,20,28,18.40
2015,08,14,20,29,18.40
2015,08,14,20,30,18.30
2015,08,14,20,31,18.30
2015,08,14,20,32,18.30
2015,08,14,20,33,18.30
2015,08,14,20,34,18.30
2015,08,14,20,35,18.30
2015,08,14,20,36,18.20
2015,08,14,20,37,18.20
2015,08,14,20,38,18.20
2015,08,14,20,39,18.20
2015,08,14,20,40,18.30
2015,08,14,20,41,18.30
2015,08,14,20,42,18.30
2015,08,14,20,43,18.30
2015,08,14,20,44,18.30
2015,08,14,20,45,18.30
2015,08,14,20,46,18.30
2015,08,14,20,47,18.30
2015,08,14,20,48,18.30
2015,08,14,20,49,18.30
2015,08,14,20,50,18.30
2015,08,14,20,51,18.30
2015,08,14,20,52,18.30
2015,08,14,20,53,18.30
2015,08,14,20,54,18.30
2015,08,14,20,55,18.30
2015,08,14,20,56,18.30
2015,08,14,20,57,18.30
2015,08,14,20,58,18.30
2015,08,14,20,59,18.30
2015,08,14,21,00,18.30
2015,08,14,21,01,18.30
2015,08,14,21,02,18.30
2015,08,14,21,03,18.30
2015,08,14,21,04,18.30
2015,08,14,21,05,18.20
2015,08,14,21,06,18.10
2015,08,14,21,07,18.00
2015,08,14,21,08,17.90
2015,08,14,21,09,17.80
2015,08,14,21,10,17.70
2015,08,14,21,11,17.60
2015,08,14,21,12,17.50
2015,08,14,21,13,17.40
2015,08,14,21,14,17.30
2015,08,14,21,15,17.20
2015,08,14,21,16,17.10
2015,08,14,21,17,17.10
2015,08,14,21,18,17.10
2015,08,14,21,19,17.00
2015,08,14,21,20,17.00
2015,08,14,21,21,17.00
2015,08,14,21,22,17.00
2015,08,14,21,23,17.00
2015,08,14,21,24,17.00
2015,08,14,21,25,17.00
2015,08,14,21,26,17.00
2015,08,14,21,27,17.00
2015,08,14,21,28,17.00
2015,08,14,21,29,17.00
2015,08,14,21,30,17.00
2015,08,14,21,31,17.00
2015,08,14,21,32,17.00
2015,08,14,21,33,16.90
2015,08,14,21,34,16.90
2015,08,14,21,35,16.90
2015,08,14,21,36,16.90
2015,08,14,21,37,16.90
2015,08,14,21,38,16.90
2015,08,14,21,39,16.80
2015,08,14,21,40,16.80
2015,08,14,21,41,16.80
2015,08,14,21,42,16.80
2015,08,14,21,43,16.80
2015,08,14,21,44,16.80
2015,08,14,21,45,16.80
2015,08,14,21,46,16.70
2015,08,14,21,47,16.70
2015,08,14,21,48,16.70
2015,08,14,21,49,16.70
2015,08,14,21,50,16.70
2015,08,14,21,51,16.70
2015,08,14,21,52,16.70
2015,08,14,21,53,16.60
2015,08,14,21,54,16.60
2015,08,14,21,55,16.60
2015,08,14,21,56,16.60
2015,08,14,21,57,16.60
2015,08,14,21,58,16.60
2015,08,14,21,59,16.60
2015,08,14,22,00,16.60
2015,08,14,22,01,16.60
2015,08,14,22,02,16.60
2015,08,14,22,03,16.60
2015,08,14,22,04,16.60
2015,08,14,22,05,16.60
2015,08,14,22,06,16.60
2015,08,14,22,07,16.60
2015,08,14,22,08,16.60
2015,08,14,22,09,16.50
2015,08,14,22,10,16.50
2015,08,14,22,11,16.50
2015,08,14,22,12,16.50
2015,08,14,22,13,16.50
2015,08,14,22,14,16.50
2015,08,14,22,15,16.50
2015,08,14,22,16,16.40
2015,08,14,22,17,16.40
2015,08,14,22,18,16.40
2015,08,14,22,19,16.40
2015,08,14,22,20,16.40
2015,08,14,22,21,16.30
2015,08,14,22,22,16.30
2015,08,14,22,23,16.30
2015,08,14,22,24,16.30
2015,08,14,22,25,16.30
2015,08,14,22,26,16.30
2015,08,14,22,27,16.30
2015,08,14,22,28,16.30
2015,08,14,22,29,16.30
2015,08,14,22,30,16.30
2015,08,14,22,31,16.30
2015,08,14,22,32,16.30
2015,08,14,22,33,16.30
2015,08,14,22,34,16.30
2015,08,14,22,35,16.30
2015,08,14,22,36,16.30
2015,08,14,22,37,16.30
2015,08,14,22,38,16.30
2015,08,14,22,39,16.30
2015,08,14,22,40,16.30
2015,08,14,22,41,16.30
2015,08,14,22,42,16.30
2015,08,14,22,43,16.30
2015,08,14,22,44,16.30
2015,08,14,22,45,16.30
2015,08,14,22,46,16.30
2015,08,14,22,47,16.30
2015,08,14,22,48,16.30
2015,08,14,22,49,16.30
2015,08,14,22,50,16.30
2015,08,14,22,51,16.30
2015,08,14,22,52,16.30
2015,08,14,22,53,16.30
2015,08,14,22,54,16.30
2015,08,14,22,55,16.30
2015,08,14,22,56,16.30
2015,08,14,22,57,16.30
2015,08,14,22,58,16.30
2015,08,14,22,59,16.30
2015,08,14,23,00,16.30
2015,08,14,23,01,16.30
2015,08,14,23,02,16.30
2015,08,14,23,03,16.30
2015,08,14,23,04,16.30
2015,08,14,23,05,16.30
2015,08,14,23,06,16.30
2015,08,14,23,07,16.30
2015,08,14,23,08,16.30
2015,08,14,23,09,16.30
2015,08,14,23,10,16.30
2015,08,14,23,11,16.30
2015,08,14,23,12,16.30
2015,08,14,23,13,16.20
2015,08,14,23,14,16.20
2015,08,14,23,15,16.20
2015,08,14,23,16,16.20
2015,08,14,23,17,16.20
2015,08,14,23,18,16.20
2015,08,14,23,19,16.20
2015,08,14,23,20,16.20
2015,08,14,23,21,16.20
2015,08,14,23,22,16.20
2015,08,14,23,23,16.20
2015,08,14,23,24,16.20
2015,08,14,23,25,16.20
2015,08,14,23,26,16.20
2015,08,14,23,27,16.20
2015,08,14,23,28,16.20
2015,08,14,23,29,16.20
2015,08,14,23,30,16.20
2015,08,14,23,31,16.20
2015,08,14,23,32,16.20
2015,08,14,23,33,16.20
2015,08,14,23,34,16.20
2015,08,14,23,35,16.20
2015,08,14,23,36,16.20
2015,08,14,23,37,16.20
2015,08,14,23,38,16.30
2015,08,14,23,39,16.30
2015,08,14,23,40,16.30
2015,08,14,23,41,16.30
2015,08,14,23,42,16.30
2015,08,14,23,43,16.30
2015,08,14,23,44,16.30
2015,08,14,23,45,16.30
2015,08,14,23,46,16.30
2015,08,14,23,47,16.30
2015,08,14,23,48,16.30
2015,08,14,23,49,16.30
2015,08,14,23,50,16.30
2015,08,14,23,51,16.30
2015,08,14,23,52,16.30
2015,08,14,23,53,16.30
2015,08,14,23,54,16.30
2015,08,14,23,55,16.30
2015,08,14,23,56,16.30
2015,08,14,23,57,16.30
2015,08,14,23,58,16.30
2015,08,14,23,59,16.30
